User: anonymous   Login
Location: Limerick
(52.6800°N, 8.6400°W)
Time: 09:59:12
(UTC+01:00)
Language:

Sapphire - Orbit

View from above orbital plane
View from above orbital plane
View from above satellite
View from above satellite

Ground track
Ground track

The orbit data is extracted from the following two-line orbital elements,

1 26932U 01043D   18169.63882883 -.00000057 +00000-0 +10045-4 0  9998
2 26932 067.0556 228.5274 0007821 288.0556 071.9693 14.30282319872774
Epoch (UTC): 18 June 2018 15:19:54
Eccentricity: 0.0007821
inclination: 67.0556°
perigee height: 785 km
apogee height: 796 km
right ascension of ascending node: 228.5274°
argument of perigee: 288.0556°
revolutions per day: 14.30282319
mean anomaly at epoch: 71.9693°
orbit number at epoch: 87277

The dashed part of the orbit path shows where the satellite is in the earth's shadow,  

DLR